Theta_e
314 305 303 303 304 305 307 307 307 309 310 311 311 308 307 307 308 313 314 317 318 316 313 314 315 315 316 317 319 323 326 328 328 327 326 328 331 332 334 335 336 337 337 340 340 340 342 343 344 345 344 344 346 348 350 349 350 350 350 350 350 354 355 355 356 355 354 352 352 351 351 350 353 353 354 357 353 353 353 360 361 362 362 362 363 363
312 304 304 307 308 308 308 308 308 308 309 308 308 307 306 308 306 312 312 316 318 314 312 315 314 314 315 317 319 324 325 324 326 326 327 328 332 332 334 335 336 337 340 341 340 340 342 342 343 343 342 345 343 346 349 348 350 350 350 350 351 353 355 355 357 355 354 353 352 351 350 349 351 352 352 352 353 351 357 362 361 363 362 363 363 364
304 302 306 310 312 312 310 309 308 307 306 307 306 306 304 305 310 313 313 315 316 315 310 314 312 313 315 317 319 325 324 325 327 327 328 328 331 332 332 335 335 337 338 339 340 340 340 342 343 341 342 343 344 345 347 348 349 350 350 350 352 353 354 354 357 355 353 353 354 352 351 350 350 353 355 353 354 354 353 362 362 363 363 363 362 363
300 303 308 311 312 310 310 309 307 306 306 305 305 304 301 306 304 302 311 313 314 313 309 312 311 311 315 317 318 325 325 325 328 329 330 330 331 332 332 334 334 335 337 337 339 339 340 340 342 341 341 342 345 345 346 347 348 350 350 350 352 352 355 355 356 357 354 354 354 353 353 351 351 351 354 353 354 353 353 360 362 362 363 363 362 363
303 308 311 311 311 310 308 309 307 305 302 305 306 305 304 305 306 305 306 312 313 314 315 312 310 308 311 312 313 317 327 325 327 329 331 331 333 335 335 335 336 336 338 338 338 339 339 338 339 341 342 343 344 344 346 346 347 350 349 350 352 352 354 355 357 356 354 355 352 352 354 353 354 352 351 349 350 349 355 358 359 361 363 363 363 363
306 311 312 309 309 310 308 306 307 306 302 304 307 307 307 307 306 308 309 309 306 305 313 311 303 302 308 311 312 315 317 322 327 326 327 330 333 333 333 333 335 337 340 339 338 339 339 339 338 341 342 342 344 345 347 347 347 350 350 351 352 352 354 354 355 355 354 353 350 348 348 345 344 345 346 345 347 347 350 354 358 361 363 363 362 362
307 312 311 308 307 308 308 306 308 308 303 302 304 309 308 308 308 308 307 306 299 298 308 314 301 298 307 308 311 313 314 317 326 325 326 329 331 332 333 334 334 337 338 339 339 340 339 339 339 340 342 343 344 345 348 348 348 349 351 350 353 352 353 354 354 354 354 351 351 348 348 347 344 347 345 347 349 350 350 352 355 360 361 361 361 362
310 310 309 309 307 306 305 304 308 308 304 301 308 308 308 307 306 307 307 305 302 308 309 312 307 299 299 306 311 312 312 314 322 323 326 328 331 332 333 334 335 338 338 337 338 339 340 340 340 340 342 343 344 347 348 348 349 348 351 349 352 352 353 353 353 353 353 350 351 348 347 349 345 348 348 348 349 352 353 350 353 358 359 361 360 361
310 307 307 306 305 304 304 307 308 309 305 303 309 309 307 307 307 307 306 303 303 303 296 304 310 301 300 306 312 312 310 311 316 321 326 328 331 332 333 334 336 338 338 337 337 338 339 339 340 342 343 345 346 348 348 349 349 349 352 351 352 352 353 353 353 353 352 352 351 349 348 348 350 348 353 352 351 353 355 349 352 355 357 360 360 361
310 310 309 308 305 302 307 308 309 308 304 307 310 312 311 310 309 307 304 302 301 299 294 301 307 299 298 305 308 310 310 309 312 322 325 329 331 332 333 333 335 337 338 338 338 339 340 341 341 344 345 345 347 349 351 350 351 351 353 352 351 352 352 353 352 353 351 352 353 350 348 348 350 351 352 355 351 351 356 349 350 355 357 358 359 360
310 314 314 309 305 307 308 309 309 308 308 310 309 308 307 306 305 306 303 300 299 294 295 302 304 301 295 303 307 307 308 311 312 316 326 330 330 332 333 334 335 336 337 338 339 340 341 342 342 345 345 346 347 349 351 351 352 352 353 352 351 353 353 354 352 352 351 351 352 351 349 349 350 351 350 353 351 351 354 351 349 355 356 358 358 359
307 309 309 310 312 311 311 309 311 311 310 309 305 304 300 299 302 299 299 300 292 290 298 302 302 303 293 298 307 311 314 315 314 313 324 328 329 330 332 334 335 336 338 338 339 340 341 341 342 343 345 346 347 349 350 351 353 353 353 353 351 352 353 353 353 352 351 351 352 352 352 350 351 352 350 352 352 351 351 354 351 354 357 357 358 358
302 304 308 310 315 310 308 306 307 309 309 307 304 302 296 293 294 290 294 291 291 290 298 302 303 299 297 300 309 311 312 314 316 316 327 328 329 330 332 333 335 337 338 338 339 340 341 341 341 342 343 346 346 348 350 351 353 353 353 353 351 351 353 353 354 352 352 352 352 352 353 352 353 353 352 351 353 353 352 353 355 352 356 356 356 357
299 306 306 308 309 312 309 302 301 302 305 304 302 298 294 289 289 284 288 293 292 297 300 299 303 297 302 302 308 309 311 313 316 317 328 329 329 330 332 333 335 337 338 339 339 340 341 341 341 342 343 346 347 348 350 351 353 353 353 354 352 351 354 354 354 352 352 352 353 353 353 353 354 354 353 353 353 355 354 354 354 355 354 357 357 357
292 294 301 305 302 310 308 306 305 302 303 304 306 302 297 295 292 287 288 287 289 291 296 301 296 292 296 298 310 310 313 314 314 318 322 331 331 332 333 334 336 336 338 339 339 339 340 341 341 341 342 345 348 348 351 352 353 354 353 354 353 352 353 354 354 353 352 352 353 354 354 354 355 355 355 354 355 356 356 356 355 356 356 357 358 359
297 298 304 309 309 310 307 310 311 307 303 305 306 305 299 297 300 291 294 295 295 294 295 295 294 299 298 308 310 312 313 314 315 314 322 328 330 333 332 334 335 336 338 339 339 340 341 341 342 342 342 345 348 348 351 352 353 354 354 354 354 353 353 354 355 353 352 352 354 354 354 354 355 356 356 355 356 356 358 357 356 355 358 357 358 360
298 296 307 308 310 308 309 311 310 310 296 302 303 298 300 306 303 300 303 302 303 297 292 303 301 300 303 305 307 310 310 312 313 313 317 326 329 331 331 332 334 334 335 337 338 339 341 341 341 342 342 345 347 348 350 352 354 354 355 355 354 354 354 354 355 354 353 353 353 354 354 354 355 355 355 355 355 355 358 359 357 357 358 360 360 360
296 297 306 306 304 309 312 312 311 311 309 303 299 301 307 309 306 299 292 296 293 289 292 298 296 295 297 293 305 305 307 309 311 312 312 321 326 327 329 331 332 333 334 336 337 339 341 342 342 342 344 346 347 348 349 352 354 356 356 356 355 355 354 354 354 355 354 353 353 354 354 354 355 355 356 356 355 355 355 359 359 359 358 359 361 361
304 295 302 307 307 309 311 311 308 311 313 305 302 309 302 294 294 297 300 290 289 289 290 295 298 297 298 298 303 304 305 306 308 310 311 312 324 326 327 329 331 333 334 334 335 337 339 341 342 343 343 346 348 349 349 353 354 356 357 358 357 355 356 355 355 355 356 355 354 354 354 354 354 355 356 356 357 356 354 356 360 360 360 360 361 362
305 296 299 308 307 308 308 307 299 303 309 311 310 306 308 302 297 294 297 298 296 291 292 292 296 292 301 302 304 304 306 306 307 308 310 311 323 326 327 329 330 331 332 334 336 337 339 340 342 343 343 345 347 348 350 353 354 355 357 358 358 358 357 357 356 355 354 356 356 355 355 354 355 355 356 356 356 355 354 355 358 361 361 360 361 361
302 304 294 302 309 307 300 304 302 303 301 303 303 301 303 302 304 302 301 297 294 293 292 292 292 299 303 308 307 306 307 308 309 309 310 311 324 326 327 330 331 331 332 334 336 338 339 340 341 342 343 344 348 350 351 353 353 355 357 358 359 357 357 357 357 356 355 356 356 355 354 354 354 354 356 356 356 356 355 355 355 359 361 362 360 360
301 301 296 300 301 301 302 308 308 307 306 304 303 299 301 299 296 294 291 301 299 295 289 294 293 302 308 313 310 309 310 310 310 310 313 312 325 327 328 328 332 331 333 334 336 338 340 340 341 342 342 343 347 351 351 352 354 354 355 357 359 359 358 357 357 357 356 356 356 355 355 354 354 355 356 356 356 356 356 355 355 356 358 360 361 360
306 304 300 298 300 302 305 309 311 311 310 308 306 302 304 302 300 294 287 293 298 298 301 300 295 298 311 313 311 311 311 311 311 312 312 314 320 328 329 328 331 332 332 334 335 337 339 340 341 343 343 343 346 351 352 352 353 354 355 356 358 358 358 359 358 358 357 357 357 356 355 355 354 355 355 355 356 356 356 356 354 355 355 357 360 361
313 301 299 300 303 306 309 310 310 311 310 307 306 306 304 301 302 298 297 300 296 297 295 295 295 298 308 314 315 313 312 313 313 313 312 313 320 328 328 328 328 332 332 334 335 337 338 339 340 342 343 344 348 351 351 352 353 354 355 356 357 358 358 359 359 359 358 357 357 357 356 355 355 355 355 355 356 356 357 357 356 355 355 356 357 359
296 301 300 296 295 297 301 306 306 309 309 305 304 305 306 305 305 304 303 305 297 297 297 293 289 297 308 316 311 312 312 313 312 313 315 312 321 328 328 328 328 330 332 332 334 336 337 338 339 341 344 346 348 352 353 352 352 353 353 355 357 359 360 360 360 359 358 358 357 357 356 355 355 355 355 355 356 356 357 357 357 356 355 356 356 357
298 297 297 293 290 289 291 292 294 298 302 305 306 305 305 304 303 301 297 299 290 300 300 295 295 303 309 314 312 310 310 310 311 313 314 313 314 327 327 328 328 328 330 332 333 335 336 340 343 346 347 349 351 352 353 353 353 353 354 355 358 359 360 361 361 360 358 357 357 356 355 355 355 354 355 355 355 356 357 357 357 357 357 357 356 357
296 300 299 298 295 295 300 304 309 307 304 301 303 304 304 305 305 304 300 298 292 300 298 299 302 302 307 309 309 308 309 310 312 314 322 325 329 328 326 328 328 328 328 330 331 334 338 341 344 348 350 351 352 353 354 354 353 353 353 354 357 360 361 361 361 360 358 357 356 355 355 355 355 355 355 355 355 355 356 356 356 357 357 358 357 356
297 296 299 302 302 303 305 306 308 308 303 304 303 303 304 304 304 302 299 297 303 300 290 303 306 304 305 309 312 311 309 309 312 317 322 324 328 331 326 329 337 328 328 329 331 334 337 340 343 348 350 351 352 353 355 355 355 354 354 354 356 359 361 362 361 360 359 357 355 355 355 355 355 355 355 355 355 355 355 355 355 355 357 358 357 356
293 292 300 300 300 304 306 306 308 308 307 305 304 304 303 304 303 301 302 305 305 298 295 306 307 306 305 308 310 312 310 310 315 320 324 326 327 329 328 328 328 327 329 335 331 334 336 339 342 347 350 351 352 352 354 355 355 355 355 356 356 358 361 362 361 360 359 358 356 355 355 355 355 355 356 356 356 355 355 355 355 355 356 357 357 357
294 293 298 298 298 302 304 306 308 307 308 307 305 305 305 304 303 303 303 306 306 305 308 313 309 308 308 308 310 311 316 314 318 320 321 320 324 328 328 328 329 336 343 342 332 334 337 341 344 348 350 351 351 352 354 355 355 355 356 356 357 357 360 362 361 360 359 358 357 356 356 356 355 355 355 356 356 356 356 355 355 354 354 357 357 356
293 292 299 297 297 300 304 306 306 306 306 305 307 306 305 305 304 304 304 304 308 305 306 312 310 307 310 310 312 315 315 316 316 315 316 316 323 327 326 328 332 336 340 343 344 347 349 349 351 351 351 351 351 352 354 356 356 357 357 358 358 357 359 361 360 360 359 359 359 358 357 356 355 355 354 355 356 356 356 355 354 353 353 355 358 358
294 291 295 295 293 297 303 304 305 306 305 304 304 305 305 304 301 303 303 304 304 304 306 308 305 306 311 312 317 316 316 315 315 315 315 315 318 320 321 325 327 333 338 341 345 350 353 353 354 354 352 352 352 352 352 355 356 357 357 358 358 358 359 359 360 360 360 360 360 360 358 357 356 355 354 355 355 356 356 355 354 353 353 354 356 358
293 291 290 291 290 293 300 302 303 304 303 299 301 305 311 310 307 305 306 307 307 310 304 302 304 310 312 314 312 312 315 316 316 317 316 317 317 317 316 318 321 327 332 337 342 345 350 353 353 354 355 355 354 353 353 355 356 356 357 358 359 360 359 358 359 359 360 360 360 361 360 359 357 356 355 355 355 356 356 355 354 353 353 353 355 357
293 292 290 294 289 291 297 300 303 298 290 294 310 310 312 309 306 303 303 305 306 309 305 309 311 315 315 312 311 312 314 314 314 315 319 316 314 316 316 319 323 331 333 337 342 342 345 347 350 353 353 353 354 356 355 356 355 356 357 358 359 358 358 357 357 359 359 359 360 361 361 360 358 357 357 357 356 356 356 355 354 353 354 355 355 355
291 292 291 293 290 290 295 299 297 290 293 307 309 311 312 313 310 306 308 307 307 308 310 311 311 313 317 317 317 315 316 317 317 317 320 323 317 317 320 319 322 329 331 332 337 343 344 343 349 352 352 352 353 351 353 355 356 357 356 357 357 357 357 357 356 358 359 359 360 361 362 361 360 358 358 358 358 357 356 356 355 354 354 355 355 354
291 290 291 291 292 294 298 299 290 291 304 307 309 312 315 310 307 308 308 313 317 310 310 310 311 315 315 314 316 317 316 316 316 316 316 317 331 339 340 342 344 333 333 349 349 349 349 350 352 354 354 356 354 351 351 351 353 355 355 358 357 356 356 356 355 356 360 359 359 361 362 362 360 360 359 359 358 357 356 357 356 355 355 355 355 356
294 293 292 289 294 289 291 296 295 305 302 305 306 309 309 306 308 304 300 310 318 319 318 314 313 314 315 315 316 315 315 315 316 325 339 340 340 342 343 344 345 344 344 348 354 356 356 356 356 358 357 353 349 348 353 353 352 352 354 355 357 357 356 355 354 354 359 360 360 361 362 362 362 361 360 360 359 358 357 357 357 358 357 355 354 354
296 292 294 289 289 293 289 290 295 294 293 298 306 310 313 314 312 311 312 311 317 319 323 317 312 312 313 314 314 314 316 320 318 323 337 342 344 343 345 346 346 345 344 343 344 349 354 353 351 355 351 347 347 351 358 362 362 350 350 353 353 356 356 355 355 355 357 361 361 362 363 363 363 362 361 361 360 360 359 359 359 359 360 357 355 354
296 296 294 291 288 290 290 290 292 292 298 301 305 311 313 313 313 312 311 306 315 317 323 322 321 322 322 320 314 313 313 315 317 322 330 341 343 344 342 342 343 344 346 348 347 346 352 357 360 358 354 348 353 357 359 356 362 362 356 352 353 354 356 355 355 355 355 361 362 362 364 365 365 364 363 362 362 362 361 360 360 360 362 361 359 357
292 292 293 290 289 291 291 290 291 297 295 301 307 310 314 316 315 310 299 302 313 316 323 322 321 320 320 321 322 320 318 315 317 323 331 336 340 342 342 341 340 340 341 348 351 351 357 357 354 354 353 354 355 359 363 364 360 359 359 360 354 352 352 354 356 356 356 360 363 363 364 365 365 366 365 365 364 364 363 363 362 362 363 362 361 359
289 290 291 287 289 291 293 290 294 299 305 306 308 312 313 316 311 301 295 307 314 318 322 322 321 321 321 320 321 318 321 324 326 330 333 335 335 336 342 344 343 343 343 348 351 357 353 352 353 353 352 353 355 360 362 363 360 356 356 359 357 352 352 354 356 358 358 359 363 363 363 365 366 367 367 367 367 367 365 365 364 363 363 363 363 361
290 292 292 291 288 288 290 290 291 299 304 306 311 312 313 312 301 299 313 317 318 319 322 322 321 322 322 321 321 322 324 327 330 331 333 334 335 339 343 343 343 343 346 350 354 351 350 353 351 353 352 353 359 361 359 356 356 358 354 355 357 358 356 357 359 360 359 359 362 363 363 365 367 369 369 368 368 366 365 366 366 364 364 364 362 361
289 288 286 287 291 291 292 290 288 284 300 308 309 309 310 305 306 314 319 319 319 318 320 320 320 321 323 323 325 325 325 326 327 328 330 333 335 337 340 340 339 339 340 343 343 346 347 352 350 351 350 353 357 359 359 359 354 355 356 354 358 364 361 360 360 361 360 360 361 362 363 364 366 368 370 368 368 367 365 365 365 364 364 363 362 361
298 289 288 290 296 288 289 287 289 303 306 308 306 301 308 311 316 321 319 313 316 317 317 318 318 320 323 324 323 324 324 325 327 328 329 331 333 336 337 339 340 340 342 346 346 346 348 347 348 350 352 352 355 356 359 358 357 358 357 356 364 365 367 364 363 362 360 359 360 362 363 364 367 368 368 368 367 367 365 364 364 363 363 362 361 360
298 295 297 290 298 294 294 298 304 305 307 308 310 308 310 314 317 317 315 313 312 314 318 316 317 320 322 324 324 324 323 326 327 328 328 329 332 333 335 336 339 339 341 344 345 348 346 345 347 349 350 350 350 352 353 357 359 359 354 358 363 365 364 367 365 362 361 360 361 362 364 364 365 366 366 366 367 366 365 364 364 362 362 362 361 361
300 300 302 299 297 303 301 302 307 307 305 306 308 309 311 312 316 315 313 312 313 314 315 313 316 319 320 323 322 323 324 326 326 327 328 330 331 333 335 336 338 341 342 344 344 344 346 347 347 347 346 347 349 351 352 353 354 353 353 357 360 362 363 365 366 362 361 361 361 362 365 365 365 365 365 366 367 367 366 365 364 362 362 363 361 361
299 301 298 293 299 294 291 305 303 302 307 306 307 309 310 311 313 314 314 313 314 314 314 315 316 317 319 321 321 322 324 326 326 326 327 329 330 332 335 336 338 339 340 341 344 347 344 345 346 345 346 344 347 347 349 352 353 354 355 357 357 359 362 363 364 364 362 362 362 363 363 363 364 364 364 366 366 367 367 366 364 362 361 363 362 361
293 303 296 297 297 295 295 300 303 306 309 307 307 308 308 312 313 313 313 315 314 314 315 314 315 315 317 319 320 321 323 326 325 326 326 327 329 333 335 337 338 338 340 341 343 345 344 344 344 344 343 343 343 345 347 348 349 351 354 355 361 362 362 362 362 361 362 362 362 361 360 360 372 365 362 359 360 364 365 365 364 363 362 361 360 359
297 301 292 297 294 296 299 302 304 305 306 306 306 307 309 309 310 311 312 315 316 315 314 314 315 314 315 316 320 321 322 324 327 327 326 327 329 332 335 336 337 338 339 340 341 344 341 342 344 343 342 342 344 345 347 347 349 352 352 353 358 361 362 361 362 359 359 361 360 359 362 360 362 352 343 338 331 323 321 329 354 346 337 329 333 355
297 292 297 296 292 291 292 298 304 296 297 301 306 306 308 309 309 310 312 312 314 316 314 312 313 315 316 317 318 321 322 323 326 327 327 328 330 331 333 334 336 338 339 342 342 342 341 344 344 342 341 341 343 345 346 347 349 350 352 353 354 359 358 357 356 355 355 357 359 359 358 355 350 342 339 336 333 330 326 317 305 315 333 328 319 314
294 296 296 292 291 290 298 300 301 301 301 306 305 308 309 311 309 309 310 311 312 312 315 314 312 313 314 316 318 321 323 324 325 327 327 328 328 330 332 334 336 337 339 342 340 339 340 341 343 343 341 340 342 342 343 343 346 348 350 353 353 354 354 353 351 350 349 351 352 352 353 348 344 341 337 334 332 330 327 325 321 304 302 311 314 310
Wind_Speed
6 10 11 14 13 12 12 14 11 10 11 12 15 10 12 12 10 11 15 11 10 14 14 10 12 13 14 8 14 20 22 23 20 17 11 13 13 14 15 14 15 13 14 13 13 14 16 16 15 15 13 12 13 15 14 16 14 12 14 14 13 14 13 12 9 9 8 9 6 5 6 6 6 7 5 3 6 6 7 9 9 8 7 7 6 5
11 10 15 15 12 12 13 13 13 12 13 16 12 11 7 13 10 13 13 14 9 9 13 12 14 12 12 8 10 16 22 24 22 20 16 16 16 16 17 16 17 13 10 13 11 12 16 15 16 16 13 14 15 15 17 17 16 12 13 14 12 12 13 13 10 10 9 8 8 7 6 4 5 6 6 5 5 6 4 8 9 8 8 7 7 6
13 17 17 14 11 12 12 13 15 15 14 14 12 10 9 7 9 11 15 13 7 14 10 15 14 13 13 11 12 20 22 21 23 24 21 20 18 15 15 17 16 14 13 15 13 12 14 17 17 14 14 15 16 17 18 17 16 14 13 12 11 12 13 13 11 10 10 7 7 6 5 6 4 4 4 4 4 4 5 8 9 9 8 8 7 6
11 18 17 12 12 13 14 14 14 16 14 10 10 10 10 10 8 5 13 11 8 6 7 14 13 10 12 11 10 19 20 18 21 24 21 20 20 19 18 17 17 17 16 18 16 15 13 14 17 15 15 15 14 15 15 16 17 14 13 13 12 12 12 12 11 10 9 8 8 6 5 6 7 6 5 5 4 4 5 9 9 8 8 9 8 7
16 4 10 12 14 16 15 15 14 12 12 14 12 10 11 13 13 12 5 13 9 9 8 10 10 6 10 12 10 10 17 17 18 21 20 19 20 20 18 17 18 20 18 18 17 15 14 13 16 17 15 15 15 16 16 17 16 12 16 15 14 13 13 12 12 12 9 8 9 7 4 5 4 7 6 5 5 7 4 7 8 9 9 9 8 8
16 12 13 19 15 16 16 15 17 12 11 12 16 15 12 13 15 16 14 9 7 5 12 12 6 7 7 12 14 12 11 17 18 20 21 21 18 18 18 18 17 17 17 20 20 18 17 15 13 14 16 16 15 16 16 17 17 15 15 15 15 12 12 13 14 13 11 10 11 10 8 9 6 8 9 10 9 9 7 9 8 9 9 9 8 8
12 10 12 16 18 17 18 15 14 15 9 10 12 16 18 15 13 15 17 10 4 6 9 13 9 3 4 9 10 10 10 12 20 22 21 19 18 18 18 17 18 17 15 15 16 17 17 15 14 15 17 17 17 16 15 15 16 15 14 15 15 14 12 13 13 14 12 10 9 13 11 10 10 9 8 8 7 8 6 7 8 8 8 9 9 8
11 14 14 14 17 18 14 14 14 16 12 10 7 15 18 17 18 16 15 11 4 3 3 17 10 5 5 9 8 10 10 8 22 21 20 18 20 21 20 20 18 19 19 18 19 20 18 16 16 18 19 18 17 16 15 15 15 16 15 15 14 12 13 13 13 14 14 12 10 12 11 9 9 8 8 9 8 6 7 6 9 8 8 9 9 8
13 16 16 17 14 14 15 13 11 15 13 7 9 14 17 18 16 16 13 10 7 3 6 6 10 5 5 6 9 11 11 5 17 24 20 22 22 22 21 21 21 20 19 19 18 20 19 19 16 17 18 17 16 16 17 16 16 16 15 15 13 13 13 13 15 15 14 13 11 11 11 9 7 7 6 7 7 7 7 9 6 8 9 9 9 8
10 13 16 16 12 12 12 12 13 14 14 11 12 9 10 14 16 15 11 11 7 4 6 4 6 7 3 6 8 7 8 7 11 23 22 23 22 21 20 20 21 18 17 17 18 20 21 19 17 17 16 16 16 15 15 14 13 15 13 15 16 14 12 13 15 15 15 14 12 11 12 12 9 8 6 7 9 8 6 11 7 8 8 8 8 8
7 11 13 13 14 10 10 13 14 15 14 6 13 12 9 9 10 11 10 5 4 9 8 6 8 4 3 8 12 11 13 12 10 11 19 19 20 21 20 21 19 18 17 16 17 17 19 19 16 15 17 17 15 13 16 15 15 15 15 16 17 16 13 13 16 16 16 15 13 12 13 13 11 10 9 7 9 9 7 9 9 8 8 8 9 8
14 10 12 10 13 10 8 12 16 14 14 13 7 10 4 6 3 4 6 6 8 8 4 7 7 5 5 3 10 12 13 18 14 13 24 25 26 20 18 18 20 18 18 18 18 16 17 15 14 15 15 16 16 15 16 15 15 15 15 16 18 16 15 14 15 16 16 15 14 13 13 14 12 11 11 10 10 12 11 8 10 8 8 8 8 8
14 16 9 10 14 16 12 11 12 15 14 13 8 7 9 2 4 4 4 9 12 8 3 6 6 8 8 4 1 8 6 10 14 12 24 27 25 22 19 21 19 17 19 18 17 16 16 16 17 17 16 15 17 15 18 19 18 17 17 18 19 18 17 16 15 17 17 15 15 14 14 13 12 12 12 12 10 10 10 8 8 8 9 9 8 9
13 14 16 14 11 16 14 12 8 12 12 13 12 7 9 5 6 6 4 2 2 4 5 4 5 11 2 6 9 4 7 6 13 10 23 24 25 21 20 20 18 17 19 18 17 17 17 17 18 18 17 17 17 17 18 19 17 16 16 18 20 20 18 16 16 17 17 17 15 15 14 13 12 12 12 11 10 10 10 9 8 9 9 10 11 11
8 10 18 18 10 13 17 12 8 5 12 12 11 10 10 8 4 7 4 8 4 1 8 9 4 4 7 7 3 9 7 9 2 12 18 25 27 23 21 21 19 19 19 18 17 18 18 19 20 19 18 17 16 17 17 17 17 17 16 18 20 19 18 17 17 17 18 16 16 15 14 13 12 12 11 11 10 10 10 10 10 8 8 9 9 10
15 11 8 14 8 12 18 15 10 10 8 10 10 5 7 13 2 3 4 2 4 2 2 7 9 2 6 2 6 4 10 11 11 7 10 24 21 21 21 21 20 21 20 18 18 18 18 18 18 17 17 16 15 18 16 18 17 17 18 19 20 21 20 19 18 18 19 18 16 16 16 15 14 11 11 10 9 9 10 11 11 10 8 8 7 7
7 11 9 13 19 13 17 14 12 10 9 10 9 15 10 6 7 1 0 3 0 0 6 2 3 8 5 10 4 10 8 14 15 14 12 26 27 25 23 21 21 19 18 18 18 17 19 17 17 18 19 17 18 18 18 19 19 19 18 18 19 19 18 18 18 17 17 17 17 17 16 15 14 14 14 13 13 13 10 11 11 10 9 7 7 7
5 7 8 10 20 21 12 17 13 13 5 8 14 9 5 2 5 4 3 3 6 7 5 9 10 5 10 8 6 7 12 14 17 20 9 16 19 21 20 19 20 19 19 20 18 18 20 20 21 20 18 20 22 23 21 19 17 16 17 18 19 18 19 18 18 17 15 15 16 16 17 16 16 16 15 14 13 12 10 9 9 9 9 10 9 9
10 9 8 15 16 18 15 14 16 13 16 10 11 11 11 8 12 6 2 5 6 7 4 9 15 9 12 8 10 17 14 14 14 17 16 12 22 21 18 20 21 21 19 17 16 16 17 17 19 19 20 22 22 21 20 17 17 15 16 17 19 21 21 20 18 17 15 15 13 12 15 17 16 15 14 13 12 11 11 11 10 11 12 10 9 9
12 9 6 13 17 15 14 13 14 15 16 13 9 13 9 3 7 5 8 0 2 2 6 4 9 8 9 10 16 18 19 14 11 15 18 13 22 22 22 20 19 19 18 18 18 18 18 19 20 21 21 21 21 20 18 19 17 20 19 18 19 19 18 17 17 16 15 15 14 14 13 14 14 14 14 13 13 12 13 13 12 12 11 12 10 10
13 7 9 6 16 15 15 10 16 16 15 15 9 9 11 6 4 3 4 7 3 2 3 4 5 3 6 10 17 17 17 14 13 10 11 14 19 20 22 22 21 20 19 18 19 18 18 19 19 20 20 20 18 16 17 18 20 20 18 19 20 21 21 20 19 17 17 15 16 16 16 16 15 15 13 13 13 13 14 13 12 11 11 10 11 10
8 7 12 13 8 13 13 15 15 16 15 12 11 8 12 12 8 13 6 6 7 3 2 1 5 5 5 2 11 16 15 15 11 10 7 9 17 21 21 21 21 19 18 19 18 17 17 17 18 17 16 16 16 18 20 19 18 18 20 19 19 19 19 20 19 17 17 15 16 18 18 18 16 15 14 15 14 14 14 13 12 12 10 11 12 12
7 7 7 13 10 9 13 14 16 14 15 13 11 9 10 12 5 7 7 7 6 7 6 3 3 5 6 7 13 16 15 14 13 13 7 7 13 21 21 18 18 19 18 18 18 17 17 17 17 17 18 18 18 19 21 19 19 20 20 19 18 19 20 20 20 19 17 16 15 17 16 16 15 15 15 15 14 15 14 13 13 11 12 12 11 11
25 5 5 11 9 13 13 14 17 17 16 14 13 12 9 12 14 6 5 5 7 4 8 3 3 4 6 9 3 10 8 10 10 10 7 6 12 21 20 19 17 18 17 18 17 15 16 16 16 15 16 17 15 16 19 19 18 17 17 19 18 20 21 20 19 18 17 17 17 17 15 15 14 15 16 16 14 15 15 13 13 12 12 13 11 11
10 7 6 4 2 6 6 4 16 16 13 11 12 13 12 6 15 7 4 3 6 9 7 4 5 2 4 6 6 8 10 15 13 12 8 7 13 20 21 19 18 19 19 17 15 15 15 16 17 17 17 17 16 16 18 18 17 18 18 17 18 18 19 18 17 17 18 18 18 17 16 16 15 16 17 16 15 16 15 14 13 12 13 12 12 12
10 11 7 4 4 8 9 7 9 16 17 10 9 13 16 15 13 12 9 4 5 5 9 5 3 2 3 3 5 7 9 7 6 9 5 10 10 18 17 19 22 18 20 20 18 16 17 17 17 16 16 16 17 16 16 17 17 16 16 17 15 15 16 17 15 16 17 17 17 17 18 17 16 17 18 17 16 17 16 14 13 13 13 13 13 12
6 8 8 7 4 6 5 4 7 11 11 13 13 13 16 18 10 10 6 3 8 4 7 5 4 4 1 0 4 5 6 4 1 4 9 5 7 11 12 13 15 16 15 19 18 18 16 15 16 17 17 17 17 15 15 16 17 15 15 16 16 15 15 15 15 16 16 17 17 16 17 17 17 17 17 17 16 15 14 14 14 14 14 13 14 13
6 7 8 8 10 11 15 15 14 13 18 18 16 14 15 21 19 9 12 9 6 7 7 3 9 7 5 1 2 2 5 6 3 6 7 4 6 11 16 15 15 15 19 15 17 18 19 19 17 17 17 17 17 16 14 15 16 16 15 16 16 16 15 14 16 16 17 17 17 17 17 17 17 17 17 16 15 15 15 14 14 14 13 13 15 14
10 8 8 14 14 12 15 14 13 11 4 14 17 14 15 18 22 17 8 9 8 7 7 4 10 7 5 5 4 4 5 6 9 10 11 7 8 7 14 20 17 14 7 6 13 16 17 17 16 17 17 17 17 16 15 15 15 15 14 15 16 16 17 16 17 17 17 17 18 18 17 16 15 15 15 15 15 15 15 15 14 14 13 14 14 14
10 7 16 17 16 14 13 11 13 13 2 4 9 19 14 15 22 21 9 7 13 6 5 8 10 9 8 4 3 6 3 8 9 8 7 9 11 12 9 14 15 11 10 9 13 13 15 16 17 17 16 16 17 16 15 15 15 16 16 15 16 16 15 15 17 17 17 17 17 16 16 16 15 15 15 15 16 16 15 14 14 15 15 15 15 15
10 9 21 16 11 9 8 8 12 12 10 7 1 4 19 14 15 19 16 9 8 9 8 9 9 8 4 7 4 2 6 10 9 12 11 8 11 14 13 10 10 11 11 10 10 9 9 10 9 10 13 16 17 17 15 14 15 15 16 15 16 17 15 15 16 17 18 18 16 16 16 15 15 15 16 16 15 15 16 16 14 14 14 14 14 14
12 12 14 11 9 7 5 6 12 11 8 7 4 4 2 2 12 18 17 11 5 6 10 4 7 4 5 6 5 9 7 10 11 9 7 6 8 9 8 13 11 10 12 11 11 10 10 11 11 11 12 13 14 14 12 12 13 14 16 15 15 16 15 14 15 17 17 16 15 15 16 15 15 16 16 15 16 16 16 15 14 14 14 13 13 13
9 10 12 13 10 7 12 9 11 10 8 7 7 1 0 0 8 13 15 12 5 9 11 6 7 5 7 9 11 10 12 11 10 8 9 9 8 10 10 7 5 11 11 10 9 9 11 12 12 12 12 10 11 12 11 12 13 14 14 14 13 13 14 15 13 15 15 15 15 16 15 15 16 16 15 16 16 14 14 15 15 14 13 15 14 12
12 11 9 7 6 10 15 14 11 4 3 5 0 2 1 0 10 12 18 13 8 5 4 7 6 3 6 10 13 9 14 12 9 7 9 8 8 10 9 9 8 5 6 8 10 10 8 7 8 9 11 11 10 11 9 9 11 11 12 13 11 13 13 14 13 12 14 14 15 15 15 15 16 16 16 15 14 13 13 14 15 15 13 12 11 12
15 12 8 5 4 7 12 12 2 2 5 2 3 2 2 1 2 12 11 8 11 4 7 9 6 6 8 10 8 9 10 9 10 10 10 8 8 8 8 6 6 10 6 5 5 5 4 5 5 5 5 5 5 5 6 6 6 7 8 9 11 12 12 13 13 11 12 14 14 14 15 15 15 15 15 14 14 13 14 14 14 14 13 12 13 14
11 9 8 6 6 7 3 3 1 3 4 7 5 2 4 2 4 6 13 22 19 11 4 11 11 7 9 11 11 8 12 14 14 12 10 11 15 14 15 15 16 11 7 8 9 7 7 8 7 6 5 3 2 4 6 6 6 7 7 7 10 10 11 11 12 11 10 13 14 14 14 15 15 15 14 14 13 14 15 14 14 14 13 12 12 12
14 7 5 6 3 4 7 4 5 4 6 4 4 3 4 2 2 6 12 17 19 21 19 7 12 15 8 11 12 9 11 16 15 15 17 16 14 15 17 16 15 14 13 12 11 10 7 8 8 5 4 4 4 4 1 3 5 7 6 7 7 8 9 9 11 12 10 12 13 14 14 15 15 14 14 14 14 15 15 14 13 12 10 12 12 12
10 8 4 4 3 3 7 6 2 1 1 6 13 16 16 2 5 8 13 11 21 22 24 10 9 10 13 13 11 10 13 18 13 9 12 14 14 14 15 14 13 12 12 10 8 9 8 7 6 6 5 5 5 4 2 2 1 4 6 7 6 7 8 9 11 10 9 10 12 13 13 13 14 14 14 14 15 14 12 12 10 11 10 12 12 13
13 11 5 4 5 7 6 3 2 2 1 10 18 18 19 9 7 8 15 12 14 19 19 18 20 18 15 7 8 9 13 12 8 6 6 10 12 13 12 12 11 10 10 9 7 7 6 7 6 4 4 4 5 6 6 2 1 0 3 5 8 8 9 10 11 10 10 9 10 11 12 12 13 14 14 14 13 12 12 12 12 10 9 10 10 11
11 6 5 4 4 4 4 2 4 3 3 15 16 18 18 17 3 8 10 6 13 16 15 17 19 18 14 13 17 16 12 11 8 6 7 10 9 9 10 10 11 10 8 7 8 7 7 6 5 5 5 3 3 4 5 5 1 1 1 2 5 9 11 12 10 8 7 7 9 10 11 11 12 12 13 13 11 11 11 9 9 10 11 10 9 9
5 5 4 7 5 6 6 4 3 1 5 16 18 18 19 12 5 12 6 3 12 12 12 14 17 16 13 15 14 13 10 9 7 7 10 10 10 9 9 9 9 8 9 10 10 9 7 7 6 5 5 4 5 3 3 5 5 3 1 2 3 9 12 9 7 7 8 8 8 9 10 10 11 12 12 11 11 10 9 9 10 9 9 10 9 9
3 2 3 4 7 5 5 3 1 1 3 16 13 16 19 8 8 7 1 7 7 12 13 16 15 14 13 15 12 10 9 10 10 11 12 12 11 11 13 12 11 10 9 9 11 9 7 7 7 6 8 7 8 8 3 3 3 4 4 2 4 6 6 5 7 7 7 8 8 9 10 10 9 11 10 10 10 9 9 8 9 9 9 8 8 9
3 3 3 4 3 4 3 2 2 3 8 19 19 12 21 10 3 2 3 4 11 11 12 12 13 13 11 12 13 12 12 13 13 12 11 11 11 11 10 10 10 9 11 9 9 8 7 5 7 7 6 6 8 6 6 4 5 4 4 4 5 5 6 7 7 8 8 8 8 8 9 9 10 10 8 9 10 10 9 8 9 8 8 9 9 9
3 2 1 4 1 3 3 2 1 1 6 14 15 9 10 9 4 3 5 8 9 10 11 10 12 12 12 9 10 10 11 11 13 13 12 12 11 10 9 8 7 8 10 12 10 9 10 6 4 4 3 6 7 8 8 8 3 2 0 2 6 2 3 5 7 8 8 8 7 7 8 9 9 9 8 9 9 9 9 9 8 8 8 9 9 8
5 2 2 2 6 3 2 0 3 2 6 7 7 9 7 7 7 8 9 9 9 9 10 9 11 12 13 12 8 9 10 12 11 12 11 10 11 11 10 10 10 9 7 7 8 8 6 8 7 5 6 6 7 8 9 8 6 5 4 4 4 5 2 4 5 7 7 7 7 7 7 8 8 8 8 8 9 9 8 8 8 8 7 8 8 8
7 9 5 2 1 3 4 6 2 4 9 8 8 6 9 10 11 11 12 9 9 9 9 10 10 10 12 12 12 10 10 10 10 10 10 9 10 10 9 9 8 8 8 5 5 5 6 7 7 3 4 6 7 7 6 7 7 7 6 5 4 4 4 3 5 6 6 6 6 7 7 8 8 8 8 8 8 8 8 9 9 8 7 8 8 7
7 7 8 4 5 5 1 3 7 7 6 8 6 6 6 7 9 8 7 7 8 10 11 11 11 11 11 12 13 12 11 10 10 9 8 9 10 10 10 11 9 7 6 6 4 4 5 5 6 3 4 5 5 5 6 7 6 5 5 6 6 5 3 3 4 4 5 6 6 6 7 8 7 7 7 7 7 7 7 8 8 8 7 7 8 7
6 7 8 5 6 2 2 8 7 3 2 5 5 5 7 9 8 8 6 7 9 10 10 10 11 12 12 11 13 12 12 10 10 10 9 9 9 9 10 10 10 10 6 4 3 4 4 6 7 3 5 5 5 5 5 4 5 6 7 7 7 3 2 3 3 4 4 5 5 6 6 7 10 9 6 4 4 5 7 8 8 7 7 7 7 7
8 7 4 5 7 7 8 4 5 5 3 5 6 4 6 5 7 7 9 9 9 10 10 10 10 10 11 11 10 10 11 12 7 8 8 8 8 8 9 9 8 8 8 6 2 3 3 4 4 4 4 3 3 4 4 4 5 5 7 7 6 3 5 3 3 3 3 4 5 4 4 7 7 7 8 8 9 8 7 4 2 7 6 6 2 4
8 6 5 6 6 5 4 2 8 7 5 8 10 10 8 9 7 6 5 5 6 7 9 8 7 8 8 9 9 8 9 9 8 6 7 6 6 7 7 8 8 8 8 7 3 3 3 3 3 2 3 3 3 4 4 5 5 5 5 5 5 5 6 6 7 7 6 6 5 4 5 6 7 8 9 9 9 10 10 13 16 10 6 4 8 13
6 4 5 5 5 6 9 12 11 8 5 1 5 4 4 4 6 5 4 4 5 4 3 5 5 6 7 8 9 7 7 8 10 9 7 5 6 6 6 7 8 9 9 6 4 3 2 1 1 0 1 2 3 3 3 3 3 4 4 5 4 5 5 7 7 7 6 7 6 7 8 8 8 7 8 8 10 9 11 9 12 18 17 12 11 16
Wind_Direction
189 213 215 212 209 206 211 225 233 220 244 231 241 234 198 212 237 240 247 238 199 170 188 173 174 193 221 197 160 157 143 145 159 175 169 162 156 158 162 163 168 171 177 177 180 180 172 172 165 168 169 165 158 165 161 167 170 167 166 168 166 165 163 171 168 167 162 169 165 168 172 169 169 178 197 191 195 168 173 156 161 162 160 162 161 168
217 220 227 219 208 209 208 213 228 241 230 245 253 253 227 202 220 229 239 238 216 186 180 182 183 195 214 194 178 137 140 151 160 166 165 165 162 166 163 163 168 172 168 172 182 181 172 173 166 166 168 167 161 166 165 170 175 169 166 168 163 164 165 174 173 167 166 171 176 170 175 161 162 168 188 209 206 186 154 153 158 159 163 161 165 168
203 224 221 213 212 212 221 207 214 228 234 236 245 257 271 255 228 218 235 241 223 186 177 182 183 196 200 207 172 149 153 162 166 169 173 169 164 166 166 164 165 169 172 178 186 183 176 173 170 169 169 171 168 165 167 170 171 171 169 168 161 166 167 171 172 165 169 164 166 165 171 163 162 168 177 194 202 184 160 157 160 161 163 164 167 170
204 230 219 203 209 217 217 225 209 215 234 236 231 240 248 260 267 228 230 243 217 199 156 179 191 191 195 207 192 169 165 169 166 169 171 169 168 170 170 167 169 171 169 175 181 186 184 174 173 170 171 172 166 165 163 166 170 171 173 170 167 169 167 169 171 173 164 160 161 164 165 167 164 173 180 190 210 200 164 161 167 167 164 165 169 173
217 205 183 218 210 211 219 217 223 206 214 231 239 236 236 247 250 251 222 224 243 205 183 165 187 208 193 196 193 188 174 175 169 166 162 170 171 172 169 169 172 172 171 171 176 183 189 188 177 172 172 168 167 169 168 168 169 174 173 175 170 172 170 169 172 171 163 153 160 168 172 181 146 165 173 183 206 210 170 161 168 170 166 166 167 173
232 216 176 202 218 211 214 214 219 213 211 213 230 239 239 239 248 259 264 231 217 240 191 171 180 219 202 199 201 189 184 179 173 169 169 171 167 167 170 174 176 180 173 170 174 178 189 192 175 168 170 170 168 173 172 171 171 166 172 172 172 173 169 173 172 171 169 169 165 169 175 187 182 174 182 190 191 197 183 177 169 164 169 168 169 175
228 207 219 191 207 216 212 219 212 218 222 210 211 224 242 252 254 255 262 271 206 218 204 182 167 251 207 193 195 204 212 183 165 175 174 169 167 171 174 174 177 176 177 174 170 176 185 190 177 170 175 173 171 174 169 169 172 167 169 173 172 174 174 173 171 171 174 172 168 175 183 185 191 177 191 186 184 183 186 160 171 172 171 172 172 180
197 216 220 217 199 210 213 217 209 209 220 227 191 202 227 244 253 258 267 266 252 242 233 193 173 160 216 210 190 192 199 179 166 175 171 174 175 177 179 176 175 176 176 174 174 176 185 187 183 176 177 177 174 166 166 170 172 172 169 174 172 173 173 175 171 172 176 177 172 175 181 188 193 177 183 184 183 174 179 167 173 170 177 175 180 181
191 206 220 220 215 198 215 212 203 210 219 227 206 206 205 226 243 254 261 269 267 269 272 231 175 180 193 236 203 180 214 180 166 176 176 178 180 180 179 176 177 177 178 178 176 177 179 189 186 179 178 177 167 164 170 173 174 175 171 175 173 173 173 175 174 174 177 179 178 176 180 186 195 180 178 178 178 176 176 189 172 180 177 177 183 183
205 207 205 232 220 215 202 204 208 205 222 216 244 219 222 205 220 238 247 259 285 301 259 244 183 197 236 202 202 195 190 203 175 178 182 178 179 179 177 178 175 175 177 182 186 180 182 186 185 178 173 169 172 171 169 167 168 173 172 176 178 177 174 175 176 176 177 178 179 181 184 184 186 183 180 171 181 182 177 188 186 179 179 179 180 188
233 187 209 214 227 223 195 196 204 209 219 208 220 247 234 224 205 216 239 252 307 263 259 236 259 244 232 211 182 181 202 197 177 164 179 177 180 178 178 173 173 174 176 180 186 187 182 183 177 165 170 175 170 165 166 170 171 174 174 177 182 183 179 175 179 178 180 181 183 186 184 186 185 184 182 173 183 186 181 186 188 179 182 181 184 186
240 241 202 210 221 230 214 197 193 208 204 214 203 221 251 277 241 191 212 217 238 256 266 259 261 269 239 261 217 198 179 186 193 179 164 176 181 181 177 174 175 174 174 180 181 184 182 171 172 170 170 173 173 165 168 173 172 175 177 178 182 184 184 179 179 182 182 183 187 186 184 187 187 182 186 187 185 187 191 184 188 178 176 185 185 186
232 237 238 211 202 223 215 223 188 198 198 204 210 189 203 224 195 231 158 206 222 227 252 272 271 281 254 222 250 196 190 202 193 189 167 172 177 178 174 173 177 173 176 176 180 178 175 174 172 176 175 173 177 173 173 174 174 177 180 180 181 187 186 185 181 183 183 184 187 187 187 188 187 187 187 191 189 188 190 187 182 180 179 180 183 190
227 227 233 242 207 202 221 209 175 192 194 190 208 174 181 207 196 214 229 214 279 230 223 250 253 260 338 289 214 199 246 198 203 197 164 170 172 169 173 175 173 178 175 179 181 178 179 178 179 177 176 180 180 178 176 176 175 177 181 181 184 188 187 187 185 185 185 188 188 188 188 189 187 189 189 191 190 188 189 190 189 187 183 181 187 187
219 195 225 219 224 175 213 223 188 184 180 196 201 195 190 201 183 192 173 197 184 198 202 217 257 217 195 221 151 193 241 258 202 199 161 170 169 169 171 170 172 177 179 179 179 180 181 184 180 178 181 182 182 181 178 177 177 176 180 182 187 188 190 189 188 186 188 189 190 190 191 190 189 189 189 192 192 186 186 189 192 190 187 184 186 187
225 235 227 219 244 173 199 216 209 183 181 197 199 208 188 209 110 182 190 161 150 191 299 194 219 89 194 185 186 200 204 248 252 230 144 168 167 166 173 174 177 180 177 176 178 180 182 184 181 180 180 180 183 184 183 181 178 178 181 183 186 189 189 191 191 191 191 191 190 189 190 191 190 191 191 192 192 190 186 186 189 192 189 190 178 178
226 242 184 189 223 225 192 196 216 188 204 175 184 208 206 128 205 222 151 153 147 102 246 209 231 248 279 303 258 183 192 213 238 246 161 175 169 170 175 177 180 176 173 176 176 178 179 179 183 183 181 181 182 186 189 186 183 180 179 181 185 189 190 192 196 196 195 192 189 191 191 190 191 192 192 193 193 191 187 185 189 190 192 183 181 177
257 244 202 201 199 226 212 192 213 205 204 143 206 198 128 171 202 208 198 167 189 200 215 198 229 215 194 239 220 243 209 210 206 233 190 172 170 170 170 172 172 172 175 177 177 177 173 176 182 183 184 183 184 189 190 185 180 177 178 181 184 187 191 194 195 196 197 198 196 192 192 193 193 194 196 194 193 192 187 185 186 187 188 192 187 185
254 264 215 212 205 205 212 192 208 221 217 202 189 129 188 160 213 186 220 210 184 211 221 206 214 226 193 213 185 219 224 219 212 210 217 181 169 175 175 173 171 173 174 173 174 177 176 176 180 182 184 186 188 188 186 179 175 177 179 181 184 189 193 193 195 197 197 195 198 200 198 195 195 197 196 195 192 190 193 191 187 189 192 188 185 185
247 266 260 214 210 181 201 190 203 201 215 224 152 174 185 193 193 170 200 311 159 215 201 260 199 230 197 197 187 203 214 213 205 203 202 189 169 169 176 171 172 172 173 171 175 177 180 180 180 183 185 184 184 184 182 178 179 181 181 181 186 189 191 193 197 197 198 196 197 200 202 204 201 198 195 193 190 192 196 196 192 190 186 191 188 187
247 233 262 272 206 168 200 188 201 192 188 206 208 180 172 217 127 188 154 211 155 195 189 206 246 240 247 196 190 194 199 200 192 179 190 183 164 166 166 168 176 175 172 174 177 178 180 180 182 186 185 185 180 178 180 181 185 184 181 184 184 186 190 193 195 195 199 196 199 198 199 200 200 200 197 196 195 196 198 198 196 193 191 184 191 187
304 221 243 256 259 200 198 194 194 187 193 202 206 193 176 179 177 185 235 182 229 231 212 217 243 260 257 271 186 186 188 192 185 181 159 186 163 165 173 169 174 175 173 175 177 177 179 181 185 187 185 181 179 177 183 185 183 182 187 187 186 187 189 192 194 196 198 199 201 199 199 200 198 198 197 197 196 198 198 199 198 196 190 189 193 190
0 288 258 251 238 256 212 186 183 182 186 206 201 210 181 180 182 168 189 205 184 233 262 240 282 277 251 292 185 182 182 181 171 174 175 167 163 169 173 168 167 175 176 178 179 177 179 180 180 183 184 185 184 181 183 182 184 188 188 186 187 188 190 191 193 195 195 198 201 203 203 199 198 197 198 198 198 200 199 198 199 195 194 196 193 192
335 218 272 255 263 259 257 199 173 178 182 199 211 218 206 191 190 178 168 179 177 186 224 249 260 252 294 331 94 135 138 137 141 161 182 183 161 172 169 167 161 174 180 183 181 175 178 178 177 180 184 186 184 178 182 186 186 187 188 189 187 190 190 191 193 193 194 197 201 201 200 200 199 198 199 201 200 201 200 197 198 196 197 199 195 193
324 338 15 307 293 267 267 195 172 174 186 203 200 206 220 207 181 182 169 160 180 197 187 152 228 277 291 325 40 78 132 147 153 175 171 172 157 170 168 166 169 167 179 182 181 179 174 173 177 181 183 185 186 182 183 184 186 187 190 188 189 191 191 192 191 192 194 196 199 198 199 200 198 199 200 201 202 203 200 198 196 195 198 197 198 197
275 267 290 258 227 208 206 199 183 180 189 190 202 197 212 224 186 172 200 184 189 211 187 191 242 255 278 6 35 66 79 119 144 166 165 176 147 171 169 172 174 165 172 176 179 176 175 176 178 177 180 182 185 184 182 184 186 187 187 190 187 188 192 193 191 194 196 197 198 198 198 199 198 200 200 201 202 202 200 199 197 195 197 197 198 196
277 279 262 269 243 264 305 288 276 174 174 192 192 205 193 224 215 179 156 144 187 216 184 210 166 218 202 32 88 86 96 120 78 87 80 67 87 142 166 175 176 171 164 171 175 176 173 174 174 176 178 181 184 184 182 183 184 184 183 185 187 186 187 188 191 194 197 198 199 199 199 198 199 199 200 200 202 201 199 200 199 196 196 196 198 197
299 279 264 251 251 258 262 265 293 200 177 182 194 202 196 197 222 199 172 205 161 125 211 225 156 151 214 259 210 163 144 168 114 111 89 73 111 135 160 174 182 182 179 166 166 167 170 174 175 176 179 181 184 183 179 181 181 182 181 185 187 185 184 187 190 193 196 197 199 200 201 200 200 199 199 198 198 200 200 200 200 199 196 194 199 201
325 287 342 331 303 293 285 286 279 305 258 185 190 210 207 190 205 220 185 172 154 151 193 206 160 155 203 204 212 203 180 183 131 123 120 123 101 105 152 166 177 177 155 133 165 162 168 171 176 178 179 180 181 181 178 178 180 182 183 184 186 187 188 185 187 192 194 195 198 200 200 199 200 200 198 196 196 198 200 201 200 198 197 196 199 202
327 291 341 327 315 296 290 305 313 281 301 12 201 202 224 202 193 214 209 183 168 161 198 172 165 162 181 178 172 189 196 123 132 120 108 99 102 105 113 149 150 136 130 150 164 164 170 175 177 178 177 177 178 180 177 177 179 182 183 185 187 191 189 185 189 190 193 196 198 197 197 198 198 198 197 196 196 198 199 199 199 199 199 199 200 200
341 320 339 329 319 311 302 323 302 300 282 230 236 209 214 218 192 199 219 214 167 164 197 160 142 171 179 152 193 166 92 122 103 106 106 109 112 107 106 106 115 112 111 121 134 141 151 155 160 168 172 175 177 178 177 176 179 181 185 185 188 191 191 187 188 191 193 196 194 193 194 194 198 197 199 199 197 197 199 201 199 200 201 200 198 198
329 318 328 331 339 320 343 304 295 299 317 312 272 244 58 307 200 183 212 208 175 175 180 131 140 179 209 144 87 87 92 87 95 90 80 75 77 73 106 130 134 130 127 125 124 129 139 145 149 155 166 173 175 176 172 171 176 181 188 186 190 191 192 193 191 192 195 194 189 191 192 194 195 197 200 198 199 197 198 199 200 202 202 201 199 198
318 325 337 339 337 300 326 315 271 282 314 302 237 214 274 212 302 187 200 205 212 161 172 145 210 211 156 123 99 94 89 77 66 68 71 67 67 75 77 65 109 133 130 131 131 139 145 151 154 154 158 160 167 174 177 169 174 184 188 187 190 187 194 197 193 192 195 192 189 189 190 191 194 198 199 201 200 199 197 198 201 202 200 203 201 196
302 313 314 330 314 304 310 322 307 333 345 242 349 68 236 23 308 208 183 204 217 154 173 156 206 147 93 107 119 116 97 96 98 97 105 98 70 55 50 62 64 65 101 123 139 147 154 146 148 153 159 165 173 174 174 176 175 183 185 186 184 187 194 197 197 191 194 192 191 189 188 189 192 196 199 199 200 200 200 199 202 203 202 201 198 200
303 306 302 317 296 307 315 325 353 317 248 280 317 306 331 308 32 61 31 184 219 214 157 147 174 139 87 90 103 115 108 95 86 69 44 56 70 59 46 37 87 108 107 93 66 68 91 113 120 109 105 133 147 146 146 165 168 167 174 176 186 190 190 196 199 192 189 194 193 189 189 189 191 194 195 195 196 198 201 202 204 203 202 200 201 202
282 295 312 302 305 285 323 15 97 250 308 301 300 360 333 179 85 55 77 39 10 323 216 155 162 108 111 99 86 85 96 90 72 57 45 47 62 65 61 52 46 53 56 70 77 65 93 94 81 83 76 57 124 171 168 180 174 162 181 174 180 190 193 191 197 195 186 191 192 191 189 188 190 192 192 192 194 197 201 203 203 203 201 202 205 207
260 288 280 317 305 348 329 297 265 316 309 304 353 27 10 29 15 110 79 22 357 4 343 142 122 116 109 97 96 85 84 78 63 44 43 49 53 59 67 58 52 59 60 47 45 44 40 67 73 60 69 60 66 76 137 206 183 178 176 179 182 180 191 193 197 198 187 189 190 191 189 190 189 189 190 190 193 198 200 201 203 204 198 204 208 207
260 267 304 330 289 342 319 326 317 344 316 352 348 335 328 297 77 72 80 32 5 357 355 0 83 94 108 101 95 98 80 68 55 43 46 47 46 53 59 66 65 59 54 51 45 44 38 28 36 42 55 40 11 7 53 49 185 197 182 187 187 177 188 196 205 199 188 189 189 188 188 189 188 188 189 190 195 197 198 199 202 202 197 205 208 211
239 249 275 275 289 320 315 314 292 259 114 2 345 331 326 321 79 92 68 38 353 349 1 11 33 35 46 65 107 100 81 71 62 37 25 57 53 47 48 49 56 60 59 55 55 57 44 27 27 36 51 50 17 337 332 309 97 129 214 211 190 187 191 203 206 199 194 187 183 186 186 186 187 188 189 192 193 191 193 196 198 197 195 206 209 215
233 238 244 257 271 260 292 294 285 17 29 331 326 331 319 304 19 63 64 27 336 332 2 16 32 33 31 57 72 59 74 89 72 41 29 51 59 61 57 48 43 38 43 59 45 54 74 66 43 23 23 38 347 309 328 342 4 179 211 237 218 201 203 208 203 194 188 179 180 182 183 185 184 186 188 189 188 189 192 188 190 193 196 202 205 209
205 229 233 259 259 260 246 250 256 320 337 342 344 340 336 307 45 66 90 336 307 317 16 20 35 25 25 40 48 70 51 67 66 53 50 48 45 45 60 57 43 37 40 46 37 26 47 38 23 13 6 341 319 307 323 344 341 321 255 235 215 224 219 205 182 179 180 176 174 179 183 182 183 183 185 183 183 183 186 187 190 189 194 199 200 205
202 214 234 232 261 268 268 266 285 347 14 337 336 4 358 16 52 75 121 246 297 359 15 21 23 31 29 37 45 56 58 54 53 45 43 42 44 53 52 41 32 30 46 57 39 23 23 32 5 3 10 8 20 5 308 277 305 294 296 277 257 240 227 183 176 172 171 175 175 177 179 180 178 178 179 175 173 177 185 184 186 190 194 194 197 203
182 180 225 221 251 277 289 307 38 355 326 347 338 25 18 56 84 171 244 5 27 17 20 17 17 12 23 39 43 44 40 39 41 42 36 36 42 45 51 50 37 24 18 32 43 17 8 33 11 18 10 9 6 353 355 318 238 248 267 281 266 248 192 178 170 165 169 170 173 176 176 174 169 172 173 173 173 176 180 179 183 187 187 191 196 199
23 256 302 240 204 282 312 48 185 219 285 351 11 48 29 53 114 85 24 29 23 27 16 15 11 15 15 46 45 42 38 36 38 32 30 24 32 36 35 40 50 28 32 38 24 12 2 15 8 350 29 5 1 355 341 346 287 191 60 346 310 322 137 163 160 161 162 169 172 169 171 168 166 168 169 166 170 176 177 181 182 182 186 186 190 191
12 309 172 248 339 346 350 347 253 251 311 23 22 357 25 52 48 52 49 33 15 25 18 16 7 7 18 19 46 49 45 38 40 32 27 17 19 19 27 29 24 32 31 48 32 3 3 358 332 29 22 20 16 14 360 354 18 60 36 332 340 357 34 122 143 148 158 162 164 163 163 165 163 167 165 164 165 171 175 179 176 183 183 182 187 189
337 341 324 295 245 315 284 226 214 5 352 353 359 8 10 34 40 42 36 28 11 18 21 13 353 6 12 20 17 31 48 45 40 29 23 21 17 13 12 18 26 25 21 30 34 5 348 351 339 30 33 23 17 11 5 356 10 18 342 317 336 346 11 92 132 154 158 160 161 162 156 161 166 165 166 162 166 167 171 173 177 181 179 178 186 187
326 5 348 323 318 17 313 57 17 0 340 346 323 359 358 16 56 50 47 27 13 13 14 6 2 5 9 19 16 12 19 36 36 28 16 17 10 11 10 13 5 11 12 7 8 8 2 349 334 10 40 32 5 13 1 346 349 351 350 351 335 334 35 47 93 118 136 147 155 158 157 154 158 162 161 156 154 159 166 168 176 174 172 176 182 180
308 353 324 317 315 287 283 321 322 323 13 293 327 356 29 28 42 47 51 44 20 8 11 7 0 6 1 18 11 10 5 15 29 20 15 12 5 1 6 4 357 345 346 344 16 4 352 355 349 28 43 16 355 355 337 335 338 341 354 346 346 331 50 54 75 109 119 131 138 150 151 147 150 147 133 107 113 145 162 166 166 169 167 174 169 168
304 319 288 336 308 311 310 294 280 273 278 279 279 345 51 32 36 28 34 38 40 16 358 6 5 4 359 3 4 3 4 358 17 27 12 358 359 3 0 347 342 335 328 330 359 347 350 354 10 28 36 5 350 339 333 345 351 355 5 352 347 15 61 42 41 60 90 129 133 141 136 149 139 112 108 97 81 59 34 357 64 103 73 21 315 184
300 286 295 296 292 298 282 298 38 12 344 346 32 22 15 17 16 19 29 38 73 50 2 348 359 2 354 351 352 360 3 350 352 20 9 5 359 359 346 335 329 324 316 311 324 6 339 331 16 31 23 344 13 357 342 347 355 2 356 358 358 23 73 79 68 61 50 53 67 69 70 72 92 104 105 107 105 93 65 49 48 36 83 80 51 68
253 284 328 306 312 299 324 325 340 321 284 221 351 4 38 18 11 16 20 32 27 38 17 354 354 347 354 345 343 357 3 351 347 358 10 4 355 336 330 330 325 320 314 310 334 329 310 348 314 329 80 334 341 326 340 359 347 341 347 359 5 49 62 90 84 74 62 67 72 79 91 96 95 95 100 105 104 99 100 83 46 42 41 52 77 84